This is the latest recevied weather packets stored in our database for station/object VR2OT-10. If no packets are shown the sender has not sent any weather packets the latest 10 day(s).
| Time | Temp. | Humidity | Pressure | Rain* | Wind** | Luminosity | Snow |
|---|---|---|---|---|---|---|---|
| 1777615339 | 23.33° C | 70% | 1013.8 hPa | - | 4.47 m/s, 90° | - | - |
| 1777614438 | 23.33° C | 69% | 1014.1 hPa | - | 3.13 m/s, 90° | - | - |
| 1777613537 | 22.78° C | 68% | 1014.3 hPa | - | 3.13 m/s, 90° | - | - |
| 1777612638 | 22.78° C | 68% | 1014.3 hPa | - | 3.58 m/s, 90° | - | - |
| 1777611739 | 22.78° C | 68% | 1014.7 hPa | - | 3.13 m/s, 90° | - | - |
| 1777610838 | 22.78° C | 67% | 1014.8 hPa | - | 4.92 m/s, 90° | - | - |
| 1777609940 | 23.33° C | 66% | 1015 hPa | - | 4.92 m/s, 90° | - | - |
| 1777609039 | 23.33° C | 65% | 1015.1 hPa | - | 4.47 m/s, 90° | - | - |
| 1777607239 | 23.89° C | 68% | 1015.2 hPa | - | 4.47 m/s, 135° | - | - |
| 1777606339 | 23.33° C | 69% | 1015.3 hPa | - | 4.47 m/s, 90° | - | - |
| 1777605438 | 23.89° C | 70% | 1015.3 hPa | - | 4.47 m/s, 135° | - | - |
| 1777604539 | 22.78° C | 69% | 1015.3 hPa | - | 3.58 m/s, 90° | - | - |
| 1777603638 | 22.78° C | 70% | 1015.3 hPa | - | 4.02 m/s, 90° | - | - |
| 1777602738 | 22.78° C | 71% | 1015.6 hPa | - | 4.47 m/s, 90° | - | - |
| 1777600939 | 22.78° C | 71% | 1015.8 hPa | - | 3.13 m/s, 90° | - | - |
| 1777600038 | 22.78° C | 71% | 1016 hPa | - | 2.68 m/s, 135° | - | - |
| 1777598238 | 22.78° C | 70% | 1015.8 hPa | - | 3.58 m/s, 90° | - | - |
| 1777597337 | 23.89° C | 72% | 1015.6 hPa | - | 3.13 m/s, 135° | - | - |
| 1777596438 | 23.89° C | 71% | 1015.5 hPa | - | 4.02 m/s, 135° | - | - |
| 1777595539 | 22.78° C | 72% | 1015.5 hPa | - | 2.68 m/s, 90° | - | - |
| 1777594638 | 22.22° C | 72% | 1015.3 hPa | - | 3.13 m/s, 135° | - | - |
| 1777593739 | 22.22° C | 75% | 1015.3 hPa | - | 3.13 m/s, 90° | - | - |
| 1777592838 | 22.78° C | 74% | 1015.3 hPa | - | 1.34 m/s, 135° | - | - |
| 1777591937 | 21.67° C | 77% | 1015.2 hPa | - | 1.34 m/s, 90° | - | - |
| 1777591038 | 21.67° C | 75% | 1015.1 hPa | - | 0.89 m/s, 90° | - | - |
* Rain since midnight (hover to see other rain measurements)
** Current wind speed in m/s (hover to see current wind gust speed)